This demonstration page uses our WeatherBlox Daily Observations layout. Learn more.

Left ArrowRight Arrow

39.51506, -84.39828

Hourly Observations for August 15, 2016

Temp ( °F °C ) Dew Point ( °F °C ) Humidity (%) Winds ( mph kmh ) Pressure ( in mb ) Visibility ( mi km ) Precip ( " mm )
12:15 am 00:15 Clear 74 23.6 70 21 85 85 N N/A 30.12 1020 7 11 N/A
12:35 am 00:35 Clear 74 23.6 70 21 85 85 NNW 3 6 30.12 1020 10 16 N/A
12:55 am 00:55 Clear 74 23.6 70 21 85 85 N N/A 30.12 1020 10 16 N/A
1:15 am 01:15 Clear 74 23.6 70 21 85 85 N N/A 30.12 1020 10 16 N/A
1:35 am 01:35 Partly Cloudy 74 23.6 70 21 85 85 N N/A 30.12 1020 10 16 N/A
1:55 am 01:55 Partly Cloudy 74 23.6 70 21 85 85 N N/A 30.12 1020 7 11 N/A
2:15 am 02:15 Partly Cloudy 74 23.6 70 21 85 85 N N/A 30.12 1020 7 11 N/A
2:35 am 02:35 Mostly Cloudy 74 23.6 70 21 85 85 N N/A 30.12 1020 10 16 N/A
2:55 am 02:55 Cloudy with Light Rain 74 23.6 70 21 85 85 N N/A 30.12 1020 10 16 N/A
3:15 am 03:15 Partly Cloudy with Drizzle 74 23.6 70 21 85 85 N N/A 30.12 1020 10 16 N/A
3:35 am 03:35 Clear 74 23.6 70 21 85 85 N N/A 30.12 1020 10 16 N/A
3:55 am 03:55 Clear 74 23.6 70 21 85 85 N N/A 30.12 1020 10 16 N/A
4:15 am 04:15 Partly Cloudy 74 23.6 70 21 85 85 N N/A 30.12 1020 10 16 N/A
4:35 am 04:35 Mostly Cloudy with Light Rain 74 23.6 70 21 85 85 N N/A 30.12 1020 10 16 N/A
4:55 am 04:55 Cloudy with Light Rain 74 23.6 70 21 85 85 N N/A 30.12 1020 10 16 N/A
5:15 am 05:15 Mostly Cloudy with Drizzle 74 23.6 70 21 85 85 N N/A 30.12 1020 10 16 N/A
5:35 am 05:35 Mostly Cloudy 74 23.6 70 21 85 85 N 3 6 30.12 1020 10 16 N/A
5:55 am 05:55 Cloudy with Rain 74 23.6 70 21 85 85 N N/A 30.12 1020 7 11 N/A
6:15 am 06:15 Cloudy with Heavy Rain 74 23.6 70 21 85 85 N N/A 30.15 1021 7 11 N/A
6:35 am 06:35 Cloudy with Heavy Rain 74 23.6 70 21 85 85 SSW 5 7 30.15 1021 5 8 N/A
6:55 am 06:55 Cloudy with Rain 74 23.6 70 21 85 85 SE 3 6 30.15 1021 5 8 N/A
7:15 am 07:15 Cloudy with Rain 74 23.6 70 21 85 85 NE 3 6 30.15 1021 4 6 N/A
7:35 am 07:35 Cloudy with Light Rain 74 23.6 70 21 85 85 NE 5 7 30.15 1021 5 8 N/A
7:55 am 07:55 Mostly Cloudy with Light Rain 74 23.6 70 21 85 85 NE 3 6 30.12 1020 10 16 N/A
8:15 am 08:15 Partly Cloudy 74 23.6 70 21 85 85 N N/A 30.15 1021 10 16 N/A
8:35 am 08:35 Partly Cloudy with Drizzle 74 23.6 70 21 85 85 N N/A 30.15 1021 7 11 N/A
8:55 am 08:55 Mostly Cloudy with Drizzle 74 23.6 70 21 85 85 N N/A 30.15 1021 10 16 N/A
9:15 am 09:15 Cloudy with Light Rain 74 23.6 70 21 85 85 N N/A 30.15 1021 7 11 N/A
9:35 am 09:35 Cloudy with Rain 74 23.6 70 21 85 85 N N/A 30.15 1021 4 6 N/A
9:55 am 09:55 Cloudy with Heavy Rain 74 23.6 70 21 85 85 SE 3 6 30.15 1021 3 4 N/A
10:15 am 10:15 Cloudy with Heavy Rain 74 23.6 70 21 85 85 SSE 3 6 30.18 1022 2 2 N/A
10:35 am 10:35 Cloudy with Heavy Rain 74 23.6 70 21 85 85 N N/A 30.18 1022 1 1 N/A
10:55 am 10:55 Cloudy with Rain 74 23.6 70 20.9 85 85 N N/A 30.18 1022 5 8 N/A
11:15 am 11:15 Cloudy with Light Rain 74 23.6 69 20.6 83 83 N N/A 30.18 1022 10 16 N/A
11:35 am 11:35 Cloudy 74 23.6 69 20.3 82 82 E 3 6 30.18 1022 10 16 N/A
11:55 am 11:55 Mostly Cloudy 77 25.1 71 21.6 81 81 E 3 6 30.18 1022 10 16 N/A
12:15 pm 12:15 Mostly Cloudy 77 25.1 70 21.3 80 80 NE 6 9 30.15 1021 10 16 N/A
12:35 pm 12:35 Cloudy with Light Rain 77 25.1 71 21.4 80 80 N N/A 30.15 1021 4 6 N/A
12:55 pm 12:55 Cloudy 77 25.1 71 21.5 81 81 NE 3 6 30.15 1021 10 16 N/A
1:15 pm 13:15 Mostly Cloudy 77 25.1 71 21.6 81 81 NNE 6 9 30.15 1021 10 16 N/A
1:35 pm 13:35 Partly Cloudy 77 25.1 71 21.4 80 80 N 3 6 30.15 1021 10 16 N/A
1:55 pm 13:55 Partly Cloudy 78 25.3 71 21.8 81 81 N 5 7 30.15 1021 10 16 N/A
2:15 pm 14:15 Partly Cloudy 80 26.5 73 22.6 79 79 NNE 6 9 30.15 1021 10 16 N/A
2:35 pm 14:35 Mostly Cloudy 80 26.5 72 22.4 78 78 NNE 6 9 30.15 1021 10 16 N/A
2:55 pm 14:55 Mostly Cloudy 80 26.6 72 22.3 77 77 ENE 5 7 30.12 1020 10 16 N/A
3:15 pm 15:15 Mostly Cloudy 82 28 71 21.4 67 67 ENE 8 13 30.12 1020 10 16 N/A
3:35 pm 15:35 Mostly Cloudy 81 27.3 70 21.2 69 69 NNE 7 11 30.12 1020 10 16 N/A
3:55 pm 15:55 Cloudy 81 27.3 70 21.1 69 69 NE 6 9 30.09 1019 10 16 N/A
4:15 pm 16:15 Mostly Cloudy 82 28 70 21 66 66 NE 8 13 30.09 1019 10 16 N/A
4:35 pm 16:35 Partly Cloudy 84 28.8 69 20.6 61 61 NE 8 13 30.03 1017 10 16 N/A
4:55 pm 16:55 Partly Cloudy 82 28 69 20.5 64 64 E 10 17 30.06 1018 10 16 N/A
5:15 pm 17:15 Mostly Cloudy 82 28 68 19.9 61 61 E 8 13 30.09 1019 10 16 N/A
5:35 pm 17:35 Mostly Cloudy 82 28 69 20.3 63 63 E 7 11 30.09 1019 10 16 N/A
5:55 pm 17:55 Mostly Cloudy with Heavy Rain 80 26.7 67 19.7 66 66 SSE 15 24 30.09 1019 5 8 N/A
6:15 pm 18:15 Cloudy with Light Rain 74 23.6 67 19.5 78 78 N N/A 30.09 1019 10 16 N/A
6:35 pm 18:35 Cloudy with Drizzle 74 23.6 67 19.6 78 78 E 5 7 30.09 1019 10 16 N/A
6:55 pm 18:55 Mostly Cloudy 77 25.1 69 20.7 77 77 NE 3 6 30.09 1019 10 16 N/A
7:15 pm 19:15 Partly Cloudy 76 24.2 69 20.3 79 79 NNE 5 7 30.06 1018 10 16 N/A
7:35 pm 19:35 Sunny 75 23.7 67 19.6 78 78 E 3 6 30.06 1018 10 16 N/A
7:55 pm 19:55 Partly Cloudy 77 25.1 69 20.8 77 77 N N/A 30.06 1018 10 16 N/A
8:15 pm 20:15 Partly Cloudy 74 23.6 69 20.3 82 82 N N/A 30.06 1018 10 16 N/A
8:35 pm 20:35 Partly Cloudy 74 23.6 69 20.6 83 83 N N/A 30.06 1018 10 16 N/A
8:55 pm 20:55 Partly Cloudy 74 23.6 68 20.2 81 81 N N/A 30.06 1018 10 16 N/A
9:15 pm 21:15 Partly Cloudy 74 23.6 69 20.5 83 83 N N/A 30.06 1018 10 16 N/A
9:35 pm 21:35 Mostly Cloudy 74 23.6 68 20.1 81 81 N N/A 30.06 1018 10 16 N/A
9:55 pm 21:55 Partly Cloudy 74 23.6 69 20.6 83 83 N N/A 30.06 1018 10 16 N/A
10:15 pm 22:15 Clear 76 24.2 69 20.5 80 80 ESE 3 6 30.06 1018 10 16 N/A
10:35 pm 22:35 Partly Cloudy 77 25.1 70 21.1 79 79 SE 6 9 30.06 1018 10 16 N/A
10:55 pm 22:55 Clear 77 25.1 70 21.2 79 79 SSE 3 6 30.06 1018 10 16 N/A
11:15 pm 23:15 Clear 76 24.6 70 20.9 80 80 SSE 5 7 30.06 1018 10 16 N/A
11:35 pm 23:35 Clear 76 24.4 69 20.8 80 80 S 3 6 30.06 1018 10 16 N/A
11:55 pm 23:55 Clear 75 24 69 20.6 81 81 SSE 5 7 30.06 1018 10 16 N/A

Powered by AerisWeather